Regional Weather Roundup
Issued by NWS Charleston, SC

Home | Current Version | Previous Version | Text Only | Print | Product List | Glossary On
Versions: 1 2 3 4 5 6 7 8 9 10 11 12 13 14 15 16 17 18 19 20 21 22 23 24 25 26 27 28 29 30 31 32 33 34 35 36 37 38 39 40 41 42 43 44 45 46 47 48 49 50
000
ASUS42 KCHS 271927
RWRCHS

Regional Weather Roundup
National Weather Service Charleston SC
300 PM EDT SUN MAY 27 2018

NOTE: "fair" indicates few or no clouds below 12,000 feet with no
significant weather and/or obstructions to visibility.

Not all stations are quality controlled. Use data with caution,
especially dewpoint observations.

SCZ027-030-031-034>040-042>050-272000-
...Southeast South Carolina...

CITY           SKY/WX    TMP DP  RH WIND       PRES   REMARKS
N Charleston   LGT RAIN  78  71  79 SE21      29.98S
Waterfront Prk   N/A     76  71  84 SE15      29.83F
Mount Pleasant DRIZZLE   75  73  94 E7        29.99F
Johns Island   LGT RAIN  75  72  88 SE12G20   29.98F
Pinopolis        N/A     81  73  78 E6        29.92F
Moncks Corner  MOCLDY    79  70  73 SE7       29.97F
Summerville    LGT RAIN  75  72  88 SE5       29.98S
Beaufort MCAS  CLOUDY    75  74  96 E7        29.96F
Beaufort Arpt  DRIZZLE   75  72  88 E7        29.95F
Hilton Head Is LGT RAIN  75  72  88 SE7       29.96F
Walterboro     DRIZZLE   73  72  94 E9        29.98S
Allendale      LGT RAIN  73  72  94 CALM      29.96R

...Southern Midlands and Pee Dee...

CITY           SKY/WX    TMP DP  RH WIND       PRES   REMARKS
Georgetown     MOCLDY    79  77  94 SE14G21   30.01F
Kingstree      MOCLDY    81  70  69 E9        29.98F
Orangeburg     FAIR      82  67  60 SE9       29.96F
Barnwell       MOCLDY    82  64  54 E12G17    29.95S
Aiken          FAIR      81  66  61 E8        30.00S
Manning        DRIZZLE   73  66  78 SE3       29.98S
Columbia       CLOUDY    85  70  60 SE13      29.96F
Sumter         PTSUNNY   84  65  52 SE10      29.96S
Florence       FAIR      85  65  51 S12       29.99F
Myrtle Beach   FAIR      79  72  79 SE10      30.02F
N Myrtle Beach FAIR      81  72  74 VRB6      30.01F

$$

GAZ063-065-086>088-099>101-113>116-118-119-134>141-150-272000-
...Southeast Georgia...

CITY           SKY/WX    TMP DP  RH WIND       PRES   REMARKS
Savannah Arpt  LGT RAIN  78  71  79 E16       29.94F
Hunter AAF     FAIR      75  70  83 E9        29.91
Fort Stewart   LGT RAIN  75  72  88 E12       29.90F
Statesboro     RAIN      75  72  91 E3        29.93F
Sylvania       DRIZZLE   78  73  85 SE6       29.95S
Claxton        LGT RAIN  78  73  83 E8        29.92F

...CSRA, Central and far Southeast Georgia...

CITY           SKY/WX    TMP DP  RH WIND       PRES   REMARKS
Thomson        FAIR      80  69  68 S7        30.00S
Augusta-Bush   PTSUNNY   85  68  56 E10       29.93F
Augusta-Daniel FAIR      85  68  56 E9        29.95F
Swainsboro     DRIZZLE   79  72  78 E7        29.94S
Vidalia        RAIN      75  70  83 E7        29.92S
Eastman        LGT RAIN  75  65  71 E7        29.93F
Hazlehurst     LGT RAIN  76  69  79 E7        29.89F
Alma           CLOUDY    76  69  79 E8        29.88F
Waycross       LGT RAIN  76  73  90 E16       29.86F
Jesup          LGT RAIN  76  71  85 E10G16    29.89F
Baxley         CLOUDY    73  73 100 E15       29.88F
Brunswick      LGT RAIN  73  72  94 E8        29.88F
Saint Simons   LGT RAIN  76  74  93 E14       29.87F

$$

SCZ027-028-034-036>038-045-046-048>050-GAZ119-141-272000-
...Lake and Supplemental Coastal Observations...

STATION/POSITION TIME  TEMP    WIND        PRES    WAVE   SWELL
                       AIR SEA DIR/SP/G            HT/PER HT/PER/DIR
                 (UTC) (F)     (DEG/KT/KT) (MB)    (FT/S) (FT/S/D)
Winyah Bay       1845   79     110/  9     1016.0F
Lake Murray      1820   82     110/  5/  8 1013.9
ACE Basin NERRS  1845   76     120/  4     1015.0S
Fort Pulaski     1900   75 79  110/ 13/ 16 1014.1
Sapelo Island    1900   73     100/ 13     1012.0

$$

ANZ835-935-AMZ111-154-330-350-352-354-370-450-454-472-272000-
...C-MAN and Buoy Observations...

STATION/POSITION TIME  TEMP    WIND        PRES    WAVE   SWELL
                       AIR SEA DIR/SP/G            HT/PER HT/PER/DIR
                 (UTC) (F)     (DEG/KT/KT) (MB)    (FT/S) (FT/S/D)
Buoy 41004       1900      77  110/ 12/ 16 1015.7
Buoy 41008       1850   74 77  110/ 12/ 16 1012.5F   4/ 6   2/120/ 8
Folly Beach CMAN 1900   75     130/ 19/ 22 1015.8F
Capers Nearshore 1908   75 78  120/ 14/ 19 1016.3F
Fripp Nearshore  1908   74 79  110/ 14/ 21 1013.9F


STATION/POSITION TIME  TEMP    WIND        PRES    WAVE   SWELL
                       AIR SEA DIR/SP/G            HT/PER HT/PER/DIR
                 (UTC) (F)     (DEG/KT/KT) (MB)    (FT/S) (FT/S/D)
5E St. Marys GA  1900      77                N/A     4/ 5
Frying Pan Buoy  1910   79 78  150/ 12/ 14 1016.6
Buoy 41025       1910   78 78  190/ 14/ 16 1017.3
Cape Lookout NC  1900          170/ 14/ 16 1017.2F
Buoy 41002       1910      78  150/ 16/ 19 1018.1
Buoy 41010       1910   78 78  130/ 23/ 29 1012.7
St Augustine FL  1900   77 78  140/ 22/ 25 1009.6F


$$




USA.gov is the U.S. government's official web portal to all federal, state and local government web resources and services.